CZ-4 DEB, 35322

Orbit data source: Space-Track

CZ-4 DEB, 35322 is space debris in SSO originally from a launch on Thu, 14 Oct 1999 UTC launched from the Taiyaun Space Center, China (TSC). Debris objects in space refer to the collection of defunct objects orbiting the Earth. Examples of debris include non-operational satellites, rocket bodies, and fragments generated from explosions, collisions, or faulty payload assembly.

Loading next visibility...
Identifier
35322, 1999-057SA
Orbit
SSO
Country
Flag of CNCN / PRC
Related business
Manufacturer
Unknown
Mission
Spacecraft
Bus & Motor
Unknown
Mass
Unknown
Launch date (UTC)
1999-10-14 (26 years ago)
Launch vehicle
Unknown
Launch site
Taiyaun Space Center, China (TSC)
Object type
Payload
Rocket body
Debris
Shape & HBR
Unknown shape, 0.1 m
Radar Cross Section
Small (<0.1 m²)

Expand to show TLE details & history
Last TLE update: 3 days ago

TLE from 3 days ago
0 CZ-4 DEB
1 35322U 99057SA  26035.34130199  .00000511  00000-0  24089-3 0  9994
2 35322  99.0994  81.4448 0197245 107.9431 254.3351 14.14463407652391
Epoch: 2026-02-04T08:11Z
TLE epoch observation values (Epoch: 2026-02-04T08:11:28.491Z)
Latitude
-0.00013°
Longitude
-175.93316°
Altitude
888.091 km
Speed
7.387 km/s
True Right ascension
05h 25m 46s
True Declination
0° 00' 00"
Sunlit
Object was in full shadow at epoch
Visualization orbit readout
Latitude
Unknown
Longitude
Unknown
Altitude
Unknown
Speed
Unknown
Apparent Right ascension
Unknown
Apparent Declination
Unknown
Sunlit
N/A
Visualization observer readout
Local Sidereal Time
05:27:13
Azimuth
Unknown
Elevation
Unknown
Doppler factor
Unknown
Orbital elements
Apogee altitude
983.722 km
Perigee altitude
698.921 km
Semi-major axis
7,219.459 km
Eccentricity
0.01972
Inclination
99.0994°
RAAN
81.4448°
Arg. of periapsis
107.9431°
True anomaly
252.1737°
Mean anomaly
254.3351°
Eccentric anomaly
253.2529°
Mean motion
3.53823 °/min
Orbital period
101.75 mins
BSTAR
0.00024089
Loading maneuver chart data...
Computing Atmospheric mass density...
Loading historical data...
Loading historical data...
Loading historical data...
Loading historical data...
Loading historical data...
Loading historical data...
Loading historical data...

Documentation

Showing up to 5 results
|